User: anonymous   Login
Location: Oronoko Observatory
(41.9167°N, 86.3833°W)
Time: 21:53:05
(UTC-04:00)
Language:

PAYLOAD A - Orbit

View from above orbital plane
View from above orbital plane
View from above satellite
View from above satellite

Ground track
Ground track

The orbit data is extracted from the following two-line orbital elements,

1 27840U 03031A   14304.16604264  .00000109  00000-0  46760-4 0  6869
2 27840 098.2257 327.2713 0099606 132.4876 311.7743 14.38736738595265
Epoch (UTC): 31 October 2014 03:59:06
Eccentricity: 0.0099606
inclination: 98.2257°
perigee height: 691 km
apogee height: 834 km
right ascension of ascending node: 327.2713°
argument of perigee: 132.4876°
revolutions per day: 14.38736738
mean anomaly at epoch: 311.7743°
orbit number at epoch: 59526

The dashed part of the orbit path shows where the satellite is in the earth's shadow,  

DLR